Regional Weather Roundup
Issued by NWS Sterling, VA

Home | Current Version | Previous Version | Graphics & Text | Print | Product List | Glossary On
Versions: 1 2 3 4 5 6 7 8 9 10 11 12 13 14 15 16 17 18 19 20 21 22 23 24 25 26 27 28 29 30 31 32 33 34 35 36 37 38 39 40 41 42 43 44 45 46 47 48 49 50
775
ASUS41 KLWX 201710
RWRLWX

REGIONAL WEATHER ROUNDUP
NATIONAL WEATHER SERVICE BALTIMORE MD/WASHINGTON DC
1200 PM EST MON NOV 20 2017

Note: "FAIR" indicates few or no clouds below 12,000 feet
with no significant weather and/or obstructions to visibility.
 TC=TEMPERATURE CELSIUS

 * =Non NWS site. Station does not report precipitation (e.g. rain,
    snow, etc.), thunder, or fog.

DCZ001-MDZ009-015-VAZ040>042-051-053>054-201800-
WASHINGTON METRO

CITY           SKY/WX    TMP DP  RH WIND       PRES   REMARKS
WASHINGTON NAT MOSUNNY   48  22  35 SW13      30.21F
DULLES         MOSUNNY   46  22  38 W10       30.19F
ANDREWS AFB    SUNNY     46  20  35 W13       30.18F
FT BELVOIR     SUNNY     48  20  33 W12G17    30.20F
COLLEGE PARK*  SUNNY     45  19  35 W10G17    30.19F
LEESBURG*      SUNNY     46  27  46 W5        30.19F
MANASSAS*      SUNNY     48  23  37 SW13      30.21F
GAITHERSBURG*  SUNNY     44  22  41 W12G17    30.18F

$$

MDZ006>007-011-014-201800-
BALTIMORE METRO

CITY           SKY/WX    TMP DP  RH WIND       PRES   REMARKS
BWI AIRPORT    MOSUNNY   45  23  42 W12       30.17F
MD SCIENCE CTR   N/A     46  22  38 MISG      30.19F
MARTIN STATE   SUNNY     46  25  42 SW9G16    30.18F
FORT MEADE*    SUNNY     45  21  39 SW12G17   30.21F

$$

MDZ012-015-019>023-201800-
MARYLAND EASTERN SHORE

CITY           SKY/WX    TMP DP  RH WIND       PRES   REMARKS
OCEAN CITY     SUNNY     47  27  45 W14G23    30.18F
SALISBURY      SUNNY     46  24  42 W13       30.18F
CAMBRIDGE*     SUNNY     46  21  36 W12       30.20F
EASTON*        SUNNY     46  21  36 NW10G21   30.22F

$$

MDZ017>025-201800-
SOUTHERN MARYLAND

CITY           SKY/WX    TMP DP  RH WIND       PRES   REMARKS
PATUXENT RIVER MOSUNNY   49  23  36 W17G23    30.20F
ST INIGOES     SUNNY     48  28  46 W10       30.20F
LEONARDTOWN*   SUNNY     46  23  39 W10       30.22F

$$

MDZ003>005-201800-
NORTH CENTRAL MARYLAND

CITY           SKY/WX    TMP DP  RH WIND       PRES   REMARKS
FREDERICK*     SUNNY     45  18  33 SW10      30.20F
HAGERSTOWN APT SUNNY     43  20  39 SW10      30.14F
WESTMINSTER*   SUNNY     41  23  48 W10G16    30.14F

$$

MDZ501>502-201800-
WESTERN MARYLAND

CITY           SKY/WX    TMP DP  RH WIND       PRES   REMARKS
OAKLAND*       SUNNY     28  19  69 W9        30.05F WCI  20
CUMBERLAND*    SUNNY     45  21  39 W9        30.20F

$$

VAZ025>031-201800-
SHENANDOAH VALLEY

CITY           SKY/WX    TMP DP  RH WIND       PRES   REMARKS
WINCHESTER*    SUNNY     45  19  36 W10G16    30.16F
FRONT ROYAL*   SUNNY     45  19  36 MISG      30.17F
LURAY*         SUNNY     45  23  42 S10       30.19F
NEW MARKET*    SUNNY     45  17  33 S8G16     30.18F
STAUNTON*      SUNNY     44  19  37 S10       30.22F
WAYNESBORO*    SUNNY     43  19  37 SW9       30.20F

$$

WVZ021-048>050-054>055-201800-
EASTERN WEST VIRGINIA PANHANDLE

CITY           SKY/WX    TMP DP  RH WIND       PRES   REMARKS
MARTINSBURG    SUNNY     45  20  36 SW9       30.16F
PETERSBURG*    SUNNY     45  20  37 W14       30.17F

$$

VAZ036>039-050-201800-
CENTRAL FOOTHILLS

CITY           SKY/WX    TMP DP  RH WIND       PRES   REMARKS
CHARLOTTESVILL SUNNY     50  20  30 S8        30.21F
CULPEPER*      SUNNY     49  18  29 SW8       30.22F
ORANGE*        SUNNY     46  21  36 SW12      30.22F
GORDONSVILLE*  SUNNY     48  23  36 SW8G16    30.22F
WARRENTON*     NOT AVBL

$$

VAZ055>057-201800-
NORTH AND CENTRAL PIEDMONT

CITY           SKY/WX    TMP DP  RH WIND       PRES   REMARKS
FREDERICKSBRG* SUNNY     50  25  38 W5        30.21F
STAFFORD*      SUNNY     48  20  33 SW8       30.25F

$$

NCZ024-NYZ072-PAZ021-071-VAZ022-071-201800-
OTHER REGIONAL OBSERVATIONS

CITY           SKY/WX    TMP DP  RH WIND       PRES   REMARKS
NEW YORK CITY  PTSUNNY   45  22  40 W10G22    30.04F
PHILADELPHIA   MOSUNNY   45  21  38 W16G23    30.11F
PITTSBURGH     MOSUNNY   36  22  56 SW14G21   30.13F WCI  27
ROANOKE        SUNNY     45  20  36 SW14      30.26F
RICHMOND       MOSUNNY   46  22  38 W8        30.24S
RALEIGH        SUNNY     51  21  30 N5        30.27S

$$

ANZ530>537-201800-
MARINE OBSERVATIONS

STATION/POSITION TIME  TEMP    WIND        PRES
                       AIR SEA DIR/SP/G
                 (UTC) (F)     (DEG/KT/KT) (MB)
THOMAS PT LIGHT  1700   44 53  280/ 18/ 20   N/A
BALT KEY BRIDGE  1642   43     270/ 15/ 19 1021.5F
COVE POINT       1642   45     290/ 11/ 18 1023.3F
LEWISETTA        1642   46 51  270/ 10/ 13 1023.0F
SOLOMONS ISLAND  1642   47 54  270/ 11/ 18 1022.4F
PINEY POINT      1636          330/ 12/ 14   N/A

$$





USA.gov is the U.S. government's official web portal to all federal, state and local government web resources and services.